Temp_Advection
nan nan nan nan nan nan nan nan nan nan nan nan nan nan nan nan nan nan nan nan nan nan nan nan nan nan nan nan nan nan nan nan nan nan nan nan nan nan nan nan nan nan nan
nan -0 -0 0 0 -0 -0 0 0 0 0 0 1 1 0 0 0 0 0 0 0 0 -0 -0 -0 -1 -1 -1 -0 0 -0 -1 -1 -0 -0 0 -0 0 0 1 -0 0 nan
nan 0 0 0 -0 0 0 0 1 0 0 0 1 1 1 0 0 0 0 0 0 0 0 1 0 0 0 -0 -1 -1 -0 -0 -1 -1 -0 -0 -0 1 1 -0 -0 0 nan
nan -0 -0 -0 -0 0 0 1 0 0 0 -0 0 1 1 0 0 0 0 0 -0 -0 -0 -0 0 0 0 0 -0 -0 -1 -0 0 -0 -0 0 0 0 0 0 0 -0 nan
nan -0 -0 -0 0 0 0 0 -0 0 -0 0 1 0 -0 0 1 0 -0 -0 -0 0 0 0 -0 -0 -0 0 0 -0 0 -0 -0 -0 0 0 0 1 0 0 -0 -0 nan
nan -0 -0 -0 0 -0 -0 0 0 -0 -0 -0 -0 0 0 0 1 1 0 0 1 -0 -1 -0 0 0 1 1 -0 -1 -1 -1 -0 -0 -0 -0 -0 -1 -1 -1 -1 -1 nan
nan -0 -0 0 0 -0 -0 -0 -1 -1 0 0 0 -0 -0 0 1 1 0 -0 -1 -1 -0 0 0 0 -0 -0 0 0 -1 -1 -1 -1 -1 -1 -1 -1 -1 -1 -1 -1 nan
nan -0 -0 0 -0 -0 -0 -0 -1 -1 -0 -0 -1 -0 -0 -0 0 -0 -1 -1 -1 -0 -0 -0 -1 -1 0 0 0 -0 -1 -1 -1 -1 -1 -1 -1 -1 -1 -1 -1 -1 nan
nan -0 -0 0 0 -0 -0 -1 -1 -1 -0 -1 -1 -0 -1 -0 0 0 -0 -0 -1 -1 -1 -1 -1 0 1 1 0 -1 -1 -1 -1 -0 -0 0 -0 -0 -0 -0 -1 -1 nan
nan -0 -0 -0 0 -0 -1 -1 -1 -1 -1 -1 -0 -1 -1 -0 0 0 -1 -1 -1 -1 -1 -1 -1 -0 0 -0 -0 -1 -1 -0 0 0 0 -0 -0 -0 -1 -1 -2 -1 nan
nan -0 -0 -0 -0 -0 -0 -1 -1 -1 -1 -1 0 -1 -1 -1 -1 -1 -1 -1 -1 -1 -1 -1 -1 -1 -0 -1 -1 -1 -1 -0 -1 -1 -1 -1 -1 -1 -1 -1 -1 -1 nan
nan -0 -0 -0 -0 0 -0 -2 -2 -1 -1 -0 -1 -1 -1 -0 -1 -0 -1 -1 -1 -2 -2 -1 -0 0 -0 -1 -1 -1 -0 -1 -1 -1 -2 -3 -3 -3 -2 -1 -1 -1 nan
nan 0 -0 -0 -1 -2 -1 -1 -0 -0 0 -0 -0 -0 -0 -1 -0 -0 -1 -1 -1 -1 -1 -0 -0 -1 -1 -1 -1 -0 -1 -2 -2 -3 -3 -2 -2 -2 -2 -1 -1 -1 nan
nan -0 -0 -0 -1 -1 -0 0 -0 -0 -0 -0 -0 -1 -1 -1 -0 -0 0 1 0 -1 -1 -1 -2 -1 -2 -2 -2 -4 -4 -3 -3 -2 -2 -1 -1 -1 -1 -2 -2 -2 nan
nan -0 -0 -0 -0 -0 -1 -1 -0 0 -0 -0 -1 -0 -0 -1 0 1 1 0 -1 -2 -2 -1 -1 -2 -2 -2 -2 -2 -2 -2 -3 -2 -2 -2 -2 -1 -1 -1 -1 -1 nan
nan -0 -0 -0 -0 -0 -0 0 0 -1 -1 -0 -0 -0 -0 0 1 0 0 -1 -1 -2 -0 -0 -0 -0 -0 -0 -0 -1 -1 -2 -1 -1 -1 -1 -1 -1 -1 -1 -1 -1 nan
nan 0 -0 -0 -0 -0 -0 -0 -0 -0 -0 -0 -0 0 1 1 1 0 -0 -1 -1 -1 -0 -0 -0 -0 -0 -0 -0 -0 -0 -0 -0 -0 -0 -1 -1 -1 -1 -1 -1 -1 nan
nan 0 0 -0 -0 -0 -0 -0 -0 -0 -0 -0 -0 -0 -0 -0 -0 -0 -1 -1 -1 -1 -1 -1 -1 -0 -0 -0 -0 -0 -0 -0 -0 -0 -0 -0 -0 -1 -1 -1 -1 -1 nan
nan 0 0 0 -0 -0 -0 -0 -0 -0 -0 -0 -0 -0 -0 -1 -1 -1 -2 -1 -1 -1 -1 -1 -1 -1 -1 -1 -1 -0 -0 -0 -0 -0 -0 -0 -0 -1 -1 -1 -1 -0 nan
nan 0 -0 -0 -0 -0 -0 -0 -0 -0 -0 -0 -0 0 -0 -1 -1 -1 -1 -1 -0 -1 -0 -1 -1 -1 -1 -1 -1 -1 -1 -0 -0 -0 -0 -0 -0 -0 -0 -0 -1 -1 nan
nan 0 0 -0 -0 -0 -0 -0 0 0 0 -0 -0 -0 -0 -0 -0 -0 -0 0 0 0 0 0 -0 -0 -0 -0 -0 -1 -1 -1 -1 -0 -0 -0 -0 -0 -0 -0 -0 -1 nan
nan 0 0 0 0 0 0 0 0 0 0 0 0 -1 -0 0 0 0 0 0 0 0 1 1 1 1 0 0 1 0 -1 -1 -1 -1 -1 -0 -0 -0 -0 -0 -0 -0 nan
nan 0 0 0 0 0 0 0 0 0 -0 0 0 0 -0 0 0 0 0 0 0 0 0 0 1 1 1 0 1 1 0 -0 -0 -0 -1 -1 -1 -0 -0 -0 -0 -0 nan
nan 0 0 0 0 0 0 0 0 0 0 0 0 0 0 0 -0 -0 0 -0 0 0 -0 -0 -0 -0 0 0 0 1 1 -0 -0 1 0 -0 -0 -0 -0 -0 -0 -0 nan
nan 0 -0 0 0 0 0 0 0 0 0 0 0 0 -0 -0 0 -0 -0 -0 -0 -0 -0 -0 -0 -0 -0 0 0 -0 0 0 0 -0 0 0 -0 -0 -0 -0 -0 -0 nan
nan nan nan nan nan nan nan nan nan nan nan nan nan nan nan nan nan nan nan nan nan nan nan nan nan nan nan nan nan nan nan nan nan nan nan nan nan nan nan nan nan nan nan
Wind_Speed
18 20 20 21 21 21 21 19 19 19 19 22 20 15 13 9 3 6 1 4 9 11 15 16 16 19 21 22 30 38 22 31 35 29 31 40 42 45 50 46 42 48 48
17 16 16 18 19 20 22 23 23 25 26 27 27 22 19 18 14 12 13 11 7 5 3 6 11 18 20 24 32 30 28 24 24 32 31 35 40 36 27 35 48 39 34
16 17 18 19 19 19 21 23 26 28 31 31 32 30 28 25 24 22 19 18 17 15 14 12 7 5 11 15 18 22 24 23 21 25 30 29 27 35 37 42 47 42 40
15 16 17 19 20 21 20 21 23 26 30 32 33 34 33 32 30 28 26 26 25 23 20 21 21 15 6 1 8 16 19 18 24 19 13 14 15 17 23 25 25 26 33
13 14 16 18 18 18 20 22 23 27 28 30 31 33 35 36 35 34 34 32 32 31 30 30 30 28 27 22 13 5 3 7 20 20 4 6 7 12 8 10 12 15 15
11 13 15 17 16 18 19 23 23 26 29 30 34 35 35 34 33 33 34 36 35 35 35 33 31 31 30 27 24 20 14 15 8 4 5 3 8 8 9 14 14 15 13
10 13 15 16 17 18 20 21 23 27 28 31 32 33 34 33 31 32 32 33 34 35 34 32 31 30 29 29 27 24 22 24 21 16 14 13 13 14 13 13 11 13 14
9 12 15 15 17 17 19 21 23 25 28 30 32 33 32 33 30 29 31 32 34 35 35 34 33 31 28 27 26 27 27 26 24 23 21 19 15 14 16 15 15 13 12
9 11 13 14 14 16 18 20 22 23 26 29 31 31 33 33 31 30 30 30 32 34 35 36 34 31 29 25 23 24 24 25 22 20 19 16 15 14 13 9 10 9 7
10 11 12 13 14 16 17 19 21 22 24 27 29 31 31 32 32 31 30 30 31 31 32 33 34 33 30 28 27 26 25 24 20 16 15 16 17 17 15 17 16 17 14
11 11 11 12 14 16 15 16 17 18 19 21 23 27 30 30 31 32 32 31 30 30 31 32 31 29 27 27 27 27 25 20 19 18 17 17 17 18 19 19 18 17 15
10 10 11 13 13 13 15 17 15 15 16 18 19 20 21 25 29 30 30 30 29 29 29 28 26 24 24 23 24 22 21 21 21 22 22 23 23 23 21 20 17 14 14
9 10 11 11 12 13 13 14 14 15 14 16 17 18 19 20 21 25 27 27 26 26 25 23 21 22 23 25 24 23 23 24 25 25 25 23 22 20 19 17 16 13 12
9 9 10 10 11 12 13 14 14 14 14 15 16 16 16 18 20 21 23 24 25 22 21 21 23 23 24 25 27 29 30 29 26 25 24 22 21 22 21 21 19 18 15
9 9 9 9 10 12 13 13 13 16 15 13 14 15 14 16 19 21 22 23 23 22 19 18 20 22 23 24 24 25 26 26 25 24 23 22 21 21 20 20 19 19 18
9 8 7 7 8 8 8 10 13 13 13 14 15 12 11 13 14 18 20 21 21 22 17 19 20 20 21 21 22 22 23 24 23 22 22 22 21 20 21 20 19 19 19
8 8 7 7 6 6 6 6 5 10 10 11 11 13 13 13 15 17 17 17 19 16 16 17 17 18 18 18 18 19 20 21 21 20 21 21 21 20 21 20 20 20 20
10 9 7 7 5 5 5 5 5 4 4 6 10 11 13 13 15 16 15 13 13 15 14 14 14 14 14 15 16 16 17 18 18 19 20 20 21 20 20 20 20 21 20
10 8 7 6 5 4 4 4 4 4 4 4 5 9 11 12 13 13 14 13 12 13 13 12 13 13 13 13 13 13 15 16 17 17 18 19 20 20 20 20 20 21 22
9 7 6 4 3 3 3 2 3 3 3 4 6 8 9 8 9 11 13 13 12 11 12 12 12 12 12 13 13 14 14 14 14 15 16 17 18 18 19 20 20 21 21
8 7 5 3 2 1 1 1 2 2 3 4 6 9 10 7 8 9 10 12 13 13 14 13 13 12 13 13 14 14 14 14 13 14 14 15 17 18 19 19 20 20 20
8 6 4 3 1 1 2 3 3 3 4 4 5 9 10 9 9 9 11 13 14 14 15 16 16 15 15 17 17 16 14 14 14 14 14 14 16 17 19 19 20 20 20
8 7 5 3 3 4 4 4 3 3 5 5 6 7 8 10 10 11 12 15 16 17 19 19 20 20 20 20 18 16 14 13 14 15 15 14 14 16 18 19 20 20 20
8 7 6 5 5 5 5 5 5 5 6 6 7 8 9 10 10 13 15 16 18 19 20 21 21 21 20 19 17 16 14 14 16 16 12 12 12 15 17 19 19 20 20
9 7 6 6 6 6 6 6 6 6 7 7 8 9 10 10 11 13 15 17 18 19 20 21 20 20 19 17 16 15 14 15 16 14 11 9 11 14 16 18 19 19 19
9 8 7 7 8 7 7 7 7 7 7 8 8 9 10 11 12 15 16 18 19 20 21 21 20 19 18 16 15 13 13 13 13 10 8 6 9 12 14 17 19 19 18
Wind_Direction
13 7 9 19 22 21 23 26 24 26 29 29 22 27 35 37 56 64 234 223 213 240 244 244 239 235 242 245 252 249 259 236 241 242 237 239 245 251 260 265 264 258 258
24 12 13 21 26 33 36 40 41 48 47 49 43 46 53 60 60 70 74 101 154 202 234 236 243 238 239 239 247 252 257 265 264 240 247 242 242 246 258 238 246 257 260
27 24 24 27 28 30 37 41 47 51 53 54 55 54 56 61 68 68 70 72 76 80 78 73 82 212 239 242 251 261 265 265 276 266 270 233 234 225 237 234 252 255 253
32 28 27 28 33 30 33 38 41 49 55 55 57 58 62 64 66 68 72 75 73 69 67 66 62 62 69 124 254 252 264 262 270 257 249 242 228 238 239 244 241 249 256
36 35 35 34 37 38 40 44 48 51 54 56 56 58 59 62 66 70 68 66 71 73 72 69 65 59 56 55 51 36 62 245 258 274 227 249 235 238 254 261 263 237 263
42 47 46 46 45 50 52 54 55 58 58 59 58 56 56 59 62 64 68 72 71 66 63 61 63 65 60 56 51 45 44 55 47 48 24 18 294 321 304 305 294 283 269
56 60 57 55 53 54 57 58 59 59 61 59 60 58 58 56 55 58 61 63 64 64 65 66 64 59 58 58 57 58 60 59 59 53 45 37 11 353 322 313 312 310 299
70 67 63 58 56 55 57 58 59 58 58 58 58 58 57 57 55 58 56 57 59 61 62 59 56 55 55 56 57 57 58 63 60 54 46 45 31 11 0 354 339 319 295
85 75 70 66 63 63 62 61 60 59 58 58 58 58 57 55 52 52 55 55 56 53 52 51 51 53 53 54 59 61 60 59 52 51 55 52 44 37 27 17 4 12 312
92 82 75 74 71 67 65 62 61 61 61 60 59 57 56 55 54 54 54 53 51 50 49 47 42 39 37 40 47 50 50 48 47 50 48 42 37 35 34 36 33 33 25
97 92 89 85 78 76 76 76 67 63 62 59 58 58 56 54 53 51 51 52 52 50 48 45 41 36 35 37 37 39 42 42 43 41 39 39 36 34 33 32 34 29 30
101 95 89 83 80 78 74 70 67 58 53 52 52 49 44 47 52 52 51 50 50 49 50 49 46 42 41 40 40 41 40 40 38 34 31 27 25 25 24 23 22 23 18
119 109 98 87 81 73 63 59 55 55 55 51 51 47 41 39 37 47 52 50 52 54 52 50 48 45 46 47 46 43 40 37 33 31 28 24 20 16 12 11 13 15 6
130 113 97 84 76 69 63 59 56 49 47 51 48 45 39 36 36 35 35 34 37 40 40 39 42 41 42 41 38 36 35 36 35 32 26 20 15 12 10 7 4 3 359
137 121 108 91 83 73 75 74 56 58 61 55 48 47 42 34 32 34 34 32 30 33 33 30 31 31 30 30 28 27 28 30 28 24 21 17 15 9 8 2 359 359 359
147 134 129 107 91 84 75 63 62 62 60 63 56 63 37 41 29 26 26 27 27 37 27 28 26 25 24 23 22 20 20 21 21 16 15 13 10 6 3 359 359 357 351
162 150 133 110 99 91 89 87 60 18 32 43 49 42 39 33 30 26 23 24 21 36 29 24 20 18 17 13 14 13 12 12 14 13 10 8 6 3 0 356 354 349 347
168 158 143 130 116 101 90 75 74 78 49 16 15 23 20 22 21 19 18 31 22 23 27 20 14 8 6 5 1 2 3 1 4 6 4 3 1 0 355 352 349 344 340
166 161 151 137 122 104 80 67 61 52 48 24 16 1 5 11 12 12 18 24 22 16 16 12 5 2 359 355 351 350 352 350 353 356 355 356 355 356 350 347 343 340 342
175 169 156 136 114 92 76 68 49 40 26 7 1 2 10 4 8 9 11 15 16 9 7 3 358 352 349 347 346 344 342 339 339 342 345 346 347 350 344 343 341 339 336
178 175 164 149 141 117 76 37 12 7 353 3 343 353 2 13 4 4 4 6 4 1 357 355 350 344 342 340 339 335 332 331 330 329 330 333 339 343 340 339 336 335 332
188 189 190 195 244 301 311 320 324 325 332 341 336 331 352 360 357 356 354 356 355 354 350 346 343 337 336 333 331 329 327 324 324 321 320 323 330 335 335 336 334 333 331
197 199 210 235 264 294 302 304 310 317 321 326 333 332 341 345 346 349 349 351 350 347 345 342 339 335 330 328 325 322 321 319 313 313 314 311 320 326 333 332 332 331 329
201 210 224 250 271 286 289 289 298 301 309 321 328 332 335 339 340 344 347 347 345 344 341 339 336 332 329 327 325 323 318 312 314 315 310 299 312 321 329 330 331 328 330
211 222 238 259 276 278 282 283 289 299 308 316 322 327 328 333 337 342 343 342 342 340 338 337 336 334 333 331 327 323 321 320 317 310 303 297 305 320 327 330 328 328 328
222 236 251 266 272 273 274 279 286 297 305 312 316 320 327 334 339 340 340 340 339 338 339 337 337 336 334 331 326 322 322 326 323 310 289 285 306 319 327 333 331 330 327
Height
1482 1478 1473 1467 1462 1457 1450 1445 1439 1433 1426 1419 1412 1406 1401 1396 1394 1391 1389 1389 1391 1393 1393 1392 1392 1393 1394 1399 1400 1401 1398 1401 1402 1405 1408 1412 1416 1419 1422 1422 1426 1428 1429
1483 1479 1475 1469 1464 1459 1454 1447 1441 1434 1428 1421 1415 1408 1402 1397 1394 1391 1388 1387 1388 1389 1389 1389 1390 1391 1391 1391 1394 1394 1394 1396 1399 1398 1402 1403 1407 1412 1412 1416 1416 1417 1421
1484 1480 1475 1470 1466 1461 1456 1451 1445 1438 1431 1425 1418 1412 1407 1402 1397 1394 1391 1389 1388 1387 1387 1386 1384 1385 1386 1387 1389 1387 1389 1390 1392 1394 1394 1393 1399 1401 1405 1409 1411 1411 1414
1485 1481 1477 1473 1468 1464 1459 1454 1449 1443 1437 1432 1426 1420 1413 1409 1404 1401 1397 1394 1392 1391 1389 1387 1386 1384 1384 1384 1385 1387 1388 1385 1392 1389 1384 1389 1390 1391 1394 1397 1400 1404 1405
1486 1483 1479 1475 1471 1468 1463 1457 1453 1447 1442 1437 1432 1427 1421 1415 1411 1408 1406 1403 1399 1396 1394 1391 1390 1389 1387 1386 1385 1384 1385 1384 1384 1389 1384 1388 1386 1388 1390 1392 1393 1396 1394
1488 1484 1481 1478 1475 1470 1466 1461 1457 1452 1448 1443 1437 1432 1427 1422 1421 1417 1413 1409 1406 1404 1402 1400 1398 1394 1391 1389 1387 1385 1383 1385 1385 1384 1386 1383 1387 1387 1388 1390 1389 1391 1391
1490 1486 1483 1480 1477 1473 1469 1465 1461 1456 1452 1448 1442 1438 1433 1431 1428 1423 1420 1416 1413 1410 1408 1407 1405 1403 1400 1397 1392 1389 1387 1388 1388 1390 1391 1389 1391 1386 1389 1391 1389 1388 1388
1491 1488 1485 1482 1479 1476 1473 1469 1465 1461 1456 1452 1448 1444 1441 1437 1436 1432 1427 1423 1420 1417 1414 1412 1410 1408 1404 1402 1400 1398 1397 1394 1393 1393 1393 1394 1394 1392 1388 1388 1386 1387 1385
1492 1490 1487 1484 1482 1479 1476 1473 1469 1465 1461 1457 1454 1450 1446 1443 1440 1437 1433 1430 1427 1423 1421 1419 1417 1415 1413 1409 1407 1404 1403 1402 1402 1401 1401 1398 1397 1393 1390 1389 1387 1387 1384
1492 1491 1489 1487 1484 1482 1479 1476 1473 1470 1466 1463 1460 1457 1453 1449 1446 1441 1437 1435 1432 1429 1427 1424 1420 1417 1415 1413 1410 1408 1407 1407 1407 1406 1405 1401 1398 1394 1392 1390 1389 1386 1385
1494 1492 1491 1489 1487 1484 1482 1480 1477 1474 1471 1469 1466 1463 1460 1456 1452 1447 1443 1439 1437 1435 1431 1428 1426 1425 1422 1419 1416 1413 1412 1413 1411 1408 1406 1403 1400 1398 1395 1394 1392 1392 1390
1494 1494 1492 1490 1489 1487 1485 1483 1480 1479 1476 1474 1471 1468 1466 1462 1458 1454 1450 1446 1443 1440 1436 1436 1434 1432 1429 1427 1424 1422 1419 1416 1412 1409 1406 1402 1399 1398 1397 1398 1396 1394 1392
1495 1495 1494 1493 1491 1489 1488 1486 1485 1482 1481 1478 1475 1473 1470 1467 1463 1459 1456 1452 1449 1445 1444 1442 1441 1438 1435 1432 1429 1426 1422 1417 1414 1410 1408 1408 1408 1406 1404 1401 1398 1396 1395
1496 1495 1495 1494 1492 1491 1490 1489 1487 1486 1483 1481 1478 1476 1475 1471 1467 1463 1458 1456 1452 1449 1447 1445 1442 1440 1437 1434 1431 1427 1423 1421 1418 1416 1413 1411 1409 1405 1404 1402 1400 1398 1396
1496 1495 1495 1495 1494 1493 1490 1490 1489 1486 1485 1484 1482 1479 1477 1475 1470 1466 1463 1460 1456 1453 1452 1450 1447 1443 1440 1437 1435 1432 1429 1426 1424 1422 1419 1416 1413 1411 1409 1407 1404 1400 1397
1495 1496 1496 1495 1495 1495 1494 1491 1489 1487 1486 1484 1482 1481 1480 1476 1473 1468 1465 1462 1459 1456 1456 1453 1451 1448 1445 1442 1439 1437 1434 1430 1427 1426 1423 1419 1417 1415 1412 1410 1407 1403 1399
1495 1495 1495 1495 1496 1495 1495 1495 1494 1489 1488 1486 1483 1481 1478 1475 1472 1470 1467 1464 1461 1460 1459 1457 1455 1453 1450 1447 1444 1441 1438 1434 1431 1429 1426 1422 1419 1417 1414 1411 1408 1405 1400
1493 1494 1495 1494 1495 1495 1494 1494 1493 1492 1492 1491 1485 1482 1479 1476 1473 1470 1468 1466 1465 1462 1460 1459 1458 1456 1453 1450 1448 1444 1441 1437 1434 1431 1428 1425 1421 1419 1416 1413 1410 1406 1402
1492 1493 1493 1493 1493 1493 1493 1493 1493 1491 1490 1490 1487 1484 1480 1476 1473 1471 1468 1467 1465 1463 1460 1459 1457 1455 1453 1450 1447 1444 1442 1439 1435 1432 1430 1427 1423 1420 1417 1413 1410 1406 1402
1491 1491 1492 1492 1492 1491 1491 1492 1491 1490 1490 1488 1485 1482 1480 1479 1476 1472 1469 1466 1465 1463 1460 1458 1456 1454 1451 1448 1445 1442 1440 1438 1436 1433 1430 1428 1424 1421 1418 1414 1410 1405 1402
1489 1490 1491 1491 1491 1490 1490 1489 1489 1488 1488 1486 1485 1481 1479 1477 1475 1471 1468 1465 1463 1461 1457 1455 1453 1451 1448 1444 1441 1439 1437 1435 1433 1431 1429 1427 1423 1420 1417 1413 1409 1405 1401
1487 1488 1489 1489 1489 1489 1488 1487 1486 1486 1485 1483 1483 1480 1477 1475 1472 1470 1466 1463 1460 1458 1455 1452 1449 1446 1443 1439 1436 1434 1433 1431 1430 1428 1426 1424 1422 1419 1416 1412 1408 1404 1400
1485 1487 1487 1487 1487 1487 1486 1486 1484 1484 1483 1481 1480 1478 1475 1472 1469 1467 1464 1460 1458 1455 1452 1449 1445 1442 1439 1435 1433 1430 1428 1427 1425 1423 1421 1421 1419 1417 1414 1410 1406 1402 1398
1484 1485 1485 1485 1485 1484 1484 1483 1482 1482 1481 1479 1477 1475 1473 1470 1467 1464 1461 1458 1456 1453 1449 1446 1442 1439 1435 1432 1429 1426 1424 1422 1419 1417 1416 1417 1416 1415 1411 1408 1404 1400 1396
1481 1482 1483 1483 1482 1482 1482 1481 1480 1479 1478 1476 1474 1472 1470 1468 1465 1462 1459 1456 1453 1450 1447 1443 1439 1435 1431 1428 1425 1422 1420 1418 1416 1414 1413 1414 1414 1412 1410 1406 1402 1398 1394
1479 1480 1480 1480 1480 1479 1479 1478 1477 1476 1475 1473 1472 1470 1467 1465 1462 1459 1456 1453 1450 1447 1443 1439 1435 1431 1427 1424 1421 1419 1417 1415 1413 1411 1410 1411 1412 1410 1407 1403 1400 1395 1392